Terminal Aerodrome Forecast
Issued by NWS

Home | Current Version | Previous Version | Text Only | Print | Product List | Glossary On
Versions: 1 2 3 4 5 6 7 8 9 10 11 12 13 14 15 16 17
000
FTUS44 KLZK 200200 AAA
TAFADF
TAF AMD
KADF 200221Z 2002/2024 00000KT 5SM BR SKC
      TEMPO 2002/2006 2SM BR
     FM200600 00000KT 3SM BR SCT005 SCT250
      TEMPO 2009/2013 1/4SM FG VV001
     FM201400 15005KT P6SM SCT045 SCT250=

USA.gov is the U.S. government's official web portal to all federal, state and local government web resources and services.